Regional Weather Roundup
Issued by NWS

Home | Current Version | Previous Version | Text Only | Print | Product List | Glossary Off
Versions: 1 2 3 4 5 6 7 8 9 10 11 12 13 14 15 16 17 18 19 20 21 22 23 24 25 26 27 28 29 30 31 32 33 34 35 36 37 38 39 40 41 42 43 44 45 46 47 48 49 50

000
ASUS43 KLOT 291712
RWRIL

ILLINOIS REGIONAL WEATHER ROUNDUP
NATIONAL WEATHER SERVICE CHICAGO/ROMEOVILLE IL
1200 PM CDT SAT AUG 29 2015

NOTE: "FAIR" INDICATES FEW OR NO CLOUDS BELOW 12,000 FEET WITH NO
SIGNIFICANT WEATHER AND/OR OBSTRUCTIONS TO VISIBILITY.

* THESE STATIONS ARE NOT UNDER NWS QUALITY CONTROL. THEY ALSO MAY NOT
  REPORT WEATHER SUCH AS PRECIPITATION OR FOG.

ILZ001-002-007-009-015-016-024-291800-
NORTHWEST ILLINOIS

CITY           SKY/WX    TMP DP  RH WIND       PRES   REMARKS
MOLINE         CLOUDY    69  66  90 CALM      30.01S FOG
STERLING*      CLOUDY    70  66  88 S6        30.00F
SAVANNA*       CLOUDY    70  65  84 W3        30.01S
$$

ILZ003-004-008-010-011-017-018-291800-
NORTH CENTRAL ILLINOIS

CITY           SKY/WX    TMP DP  RH WIND       PRES   REMARKS
ROCKFORD       CLOUDY    68  64  87 SE9       30.03F
FREEPORT*      CLOUDY    65  64  94 CALM      30.03F
ROCHELLE*      CLOUDY    67  64  91 S7        30.03F
DE KALB*       CLOUDY    66  65  97 SE8       30.04S FOG
PERU*          CLOUDY    72  64  77 SW3       30.03S
$$

ILZ005-006-012>014-019>023-291800-
NORTHEAST ILLINOIS

CITY           SKY/WX    TMP DP  RH WIND       PRES   REMARKS
CHICAGO-OHARE  LGT RAIN  67  64  90 SE8       30.04S
CHICAGO-MIDWAY CLOUDY    71  63  75 S7        30.04S
AURORA         LGT RAIN  67  65  93 SE6       30.04F VSB 3/4
LANSING*       CLOUDY    73  66  79 S14       30.04S
JOLIET*        CLOUDY    73  67  81 S3        30.04R
WAUKEGAN       CLOUDY    64  64 100 SE7       30.03F FOG
DUPAGE AIRPORT RAIN      66  64  93 S3        30.03S FOG
KANKAKEE*      DRIZZLE   70  66  89 SE7       30.05F
WHEELING       CLOUDY    66  64  93 S8        30.03F FOG
MORRIS*        CLOUDY    71  66  82 S7        30.02S
ROMEOVILLE*    CLOUDY    71  64  80 S5        30.04R
NORTHERLY ISL    N/A     66  62  87 SE1         N/A
$$

LMZ740>746-291800-
SOUTHERN LAKE MICHIGAN

STATION/POSITION SKY/WX   TEMP    WIND        PRES    VSBY  WAVE
                          AIR SEA DIR/SP/G                  HT/PER
                          (F)     (DEG/KT/KT) (MB)    (MI)  (FT/S)
SOUTHERN BUOY              66 68  130/ 14/ 14 1017.2F
WILMETTE HARBOR            60 56  340/  8/ 10   N/A           2/ 3
HARRISON CRIB              67     120/ 15/ 17   N/A
BURNHAM HARBOR             66     140/  4       N/A
BURNS HARBOR               69     170/  8/ 12 1017.9F
MICHIGAN CITY              65     100/  7/  9   N/A
MICHIGAN CITY 6N           68 71  140/  6/  8   N/A           1
ST. JOSEPH                 67 70  200/ 12/ 16   N/A           1
$$

ILZ025>027-034>036-040-047-049-050-058-095>099-291800-
WEST-CENTRAL ILLINOIS

CITY           SKY/WX    TMP DP  RH WIND       PRES   REMARKS
QUINCY         MOSUNNY   79  66  64 W8        30.01R HX  81
GALESBURG*     CLOUDY    73  65  76 SW5       30.02R
MACOMB*        PTSUNNY   76  65  69 SW5       30.03S
JACKSONVILLE*  MOSUNNY   80  67  64 SW7       30.02S HX  82
PITTSFIELD*    MOSUNNY   80  66  61 SW5       30.02S HX  82
$$

ILZ028>032-037-038-041>044-048-051>054-059>061-291800-
CENTRAL ILLINOIS

CITY           SKY/WX    TMP DP  RH WIND       PRES   REMARKS
PONTIAC        CLOUDY    74  68  82 S9        30.04S
BLOOMINGTON    CLOUDY    76  67  73 S10       30.05S
DECATUR        CLOUDY    77  66  68 S7        30.04F
PEORIA         MOSUNNY   81  65  58 S6        30.02S HX  83
LACON*         CLOUDY    73  64  73 SW5       30.01S
LINCOLN*       CLOUDY    78  66  66 S6        30.03S HX  80
SPRINGFIELD    CLOUDY    78  67  68 SW9       30.03R HX  80
TAYLORVILLE    CLOUDY    75  66  73 S8        30.04S
$$

ILZ033-039-045-046-055>057-062-063-291800-
EAST-CENTRAL ILLINOIS

CITY           SKY/WX    TMP DP  RH WIND       PRES   REMARKS
CHAMPAIGN      CLOUDY    80  67  64 S8        30.05F HX  82
RANTOUL*       CLOUDY    80  67  63 S7        30.06S HX  82
MATTOON        CLOUDY    79  65  62 S9        30.06S HX  81
PARIS*         CLOUDY    82  69  63 S9        30.07F HX  85
$$

ILZ079-100>102-291800-
SOUTHWEST ILLINOIS

CITY           SKY/WX    TMP DP  RH WIND       PRES   REMARKS
ALTON          CLOUDY    77  66  69 S6        30.03S
BELLEVILLE     CLOUDY    76  69  77 VRB3      30.04R
CAHOKIA*       CLOUDY    78  64  61 S9        30.04S HX  80
SPARTA*        CLOUDY    79  67  66 S8        30.06F HX  81
$$

ILZ064>066-069>071-074>076-080>082-084>086-088>090-092>094-291800-
SOUTH-CENTRAL ILLINOIS

CITY           SKY/WX    TMP DP  RH WIND       PRES   REMARKS
CARBONDALE     CLOUDY    81  69  67 S10       30.07S HX  84
CAIRO*         PTSUNNY   81  74  80 S6        30.08F HX  86
EFFINGHAM*     PTSUNNY   81  64  56 SE7       30.07S HX  82
MARION         CLOUDY    81  70  69 S14       30.08F HX  84
MT. VERNON     CLOUDY    77  66  69 S8        30.08S
SALEM*         CLOUDY    80  68  67 S8        30.06S HX  83
METROPOLIS*    PTSUNNY   83  74  73 SW7       30.09S HX  90
$$

ILZ067-068-072-073-078-083-087-091-291800-
SOUTHEAST ILLINOIS

CITY           SKY/WX    TMP DP  RH WIND       PRES   REMARKS
LAWRENCEVILLE  CLOUDY    81  68  64 SW13      30.08F HX  84
FLORA*         CLOUDY    79  68  68 S10       30.06F HX  81
FAIRFIELD*     CLOUDY    79  70  73 S8        30.06F HX  81
HARRISBURG*    CLOUDY    83  72  69 S10       30.08F HX  88
ROBINSON*      CLOUDY    80  68  67 S9        30.09S HX  82
CARMI*         CLOUDY    78  71  81 SW8       30.08S
$$

ABBREVIATIONS USED IN REMARKS
   TC - TEMPERATURE IN CELSIUS
  WCI - WIND CHILL INDEX
   HX - HEAT INDEX
  VSB - VISIBILITY
$$




USA.gov is the U.S. government's official web portal to all federal, state and local government web resources and services.